Other Public Products
Issued by NWS Grand Forks, ND

Home | Current Version | Previous Version | Text Only | Print | Product List | Glossary Off
Versions: 1 2 3 4 5 6 7 8 9 10 11 12 13 14 15 16 17 18 19 20 21 22 23 24 25 26 27 28 29 30 31 32 33 34 35 36 37 38 39 40 41 42 43 44 45 46 47 48 49 50

000
FPUS83 KFGF 201910
OPUFGF
PRAIRIE TO PINES WEATHER ROUNDUP
NATIONAL WEATHER SERVICE EASTERN NORTH DAKOTA/GRAND FORKS ND
100 PM CST THU NOV 20 2014

 **SATELLITE DATA USED TO AUGMENT SKY COVER AT AUTOMATED STATIONS**
 *****  WEATHER ACROSS EASTERN NORTH DAKOTA  *****

CITY           SKY/WX    TMP DP  RH WIND       PRES   REMARKS
GRAND FORKS    MOSUNNY   18   2  49 W6        30.14F WCI  10
GRAND FORKS AF SUNNY     19   1  46 VRB3      30.13F
GRAND CITY NWS   N/A     19 N/A N/A NW5         N/A  WCI  13
BUXTON         NOT AVBL
DEVILS LAKE    SUNNY     16   1  53 W8        30.06F WCI   5
FARGO          SUNNY     20   3  48 NW6       30.16S WCI  12
WAHPETON ARPT  CLEAR     18   7  62 W7        30.17F WCI   8
$$

 *****  WEATHER ACROSS CENTRAL AND WESTERN NORTH DAKOTA  *****

CITY           SKY/WX    TMP DP  RH WIND       PRES   REMARKS
JAMESTOWN      SUNNY     20   6  55 VRB5      30.10F WCI  13
BISMARCK       SUNNY     20   9  62 SW8       30.08F WCI  10
MINOT          MOSUNNY   19   8  62 S12G17    30.02F WCI   7
MINOT AFB      SUNNY     20   9  62 S9        30.02F WCI   9
GARRISON         N/A     18  11  74 SW12      30.03F WCI   5
WILLISTON      PTSUNNY   19  10  68 S12       29.97F WCI   7
DICKINSON      CLOUDY    19  15  84 S15       29.93F FOG     WCI   5
HETTINGER      CLOUDY    20  17  88 S8        29.97F WCI  10
$$

 *****  OTHER OBSERVATIONS NORTHEAST NORTH DAKOTA  *****

CITY           SKY/WX    TMP DP  RH WIND       PRES   REMARKS
WALHALLA         N/A     18   1  49 W6        30.11F WCI   9
LANGDON        FAIR      16   7  67 SW7       30.05F WCI   6
CAVALIER       FAIR      16   1  53 CALM      30.12F
GRAFTON        FAIR      14   1  57 N5        30.14S WCI   6
CANDO          FAIR      19   7  58 W7        30.06F WCI  10
FORT TOTTEN      N/A     17   6  61 SW6       29.95  WCI   9
ROLLA          FAIR      16   7  67 SW10      30.03S WCI   3
RUGBY          MOCLDY    16   7  67 SW7       30.05F WCI   6
 ***** THE ABOVE OBSERVATIONS ARE NON NWS ARE NOT QUALITY
        CONTROLLED AND MAY MIS-REPORT RAIN FOR SNOW...
$$

 *****  OTHER OBSERVATIONS SOUTHEAST NORTH DAKOTA *****

CITY           SKY/WX    TMP DP  RH WIND       PRES   REMARKS
COOPERSTOWN    NOT AVBL
VALLEY CITY    FAIR      16   7  67 SW5       30.12S WCI   9
OAKES            N/A     18   9  68 SW6       30.14F WCI   9
GWINNER        CLEAR     19   9  63 SW7       30.16S WCI  10
BUFFALO        NOT AVBL
WYNDMERE       NOT AVBL
 ***** THE ABOVE OBSERVATIONS ARE NON NWS ARE NOT QUALITY
       CONTROLLED AND MAY MIS-REPORT RAIN FOR SNOW...
$$

  *****  WEATHER ACROSS NORTHERN MINNESOTA  *****

CITY           SKY/WX    TMP DP  RH WIND       PRES   REMARKS
FLAG ISLAND    SUNNY      7  -2  66 NW9       30.05F WCI  -7
WARROAD        SUNNY     10   0  61 W9        30.08S WCI  -2
ROSEAU         SUNNY      9   1  72 W9        30.09S WCI  -5
HALLOCK        SUNNY     10   1  67 CALM      30.13S
THF RVR FALLS  SUNNY      9   1  72 NW8       30.12S WCI  -4
HALSTAD          N/A     18   5  56 NW5         N/A  WCI  11
FOSSTON        SUNNY     12   0  57 W7        30.11F WCI   2
BAUDETTE       MOSUNNY    7  -2  66 NW8       30.05S WCI  -6
WASKISH        SUNNY     10   1  67 W9        30.07R WCI  -2
CROOKSTON      SUNNY     10   1  67 NW3       30.16S
$$
  *****  WEATHER ACROSS CENTRAL AND WEST MINNESOTA  *****

CITY           SKY/WX    TMP DP  RH WIND       PRES   REMARKS
BEMIDJI        SUNNY      8  -2  62 W14       30.07S WCI  -8
PARK RAPIDS    SUNNY     11   0  61 NW16      30.07S WCI  -6
WADENA         SUNNY     12   0  57 NW16      30.10S WCI  -4
DETROIT LAKES  SUNNY     12   3  67 NW8       30.12S WCI   1
MOORHEAD       SUNNY     18   3  53 N5        30.16S WCI  11
FERGUS FALLS   SUNNY     14   3  62 NW6       30.18S WCI   5
ELBOW LAKE       N/A     12   5  72 W7        30.15S WCI   2
MORRIS MN      SUNNY     14   5  67 W8        30.16S WCI   3
STAPLES        SUNNY     12   0  57 NW12G17   30.09S WCI  -2
WHEATON        SUNNY     14   7  73 W6        30.20S WCI   5
$$
  *****  WEATHER ELSEWHERE ACROSS MINNESOTA  *****

CITY           SKY/WX    TMP DP  RH WIND       PRES   REMARKS
DULUTH         MOSUNNY   12  -1  56 NW16G23   29.98R WCI  -5
INTRNTL FALLS  SUNNY     10  -2  58 NW12      30.02S WCI  -5
ELY            PTSUNNY    9   0  66 NW13G20   29.95S WCI  -7
CLOQUET        SUNNY     12   0  57 W13       30.01R WCI  -3
BRAINERD       SUNNY     13  -1  54 W15       30.09R WCI  -3
HIBBING        MOSUNNY   12  -2  53 NW14      30.01R WCI  -3
ALEXANDRIA     SUNNY     13   3  64 NW10      30.12S WCI   0
SAINT CLOUD    SUNNY     16   2  54 NW15G22   30.12S WCI   1
MINNEAPOLIS    SUNNY     17   2  51 NW18G25   30.14R WCI   1
$$

  *****  WEATHER ACROSS SOUTH DAKOTA  *****

CITY           SKY/WX    TMP DP  RH WIND       PRES   REMARKS
SIOUX FALLS    MOSUNNY   20  10  65 W12       30.18S WCI   8
BROOKINGS      NOT AVBL
WATERTOWN      SUNNY     13   7  77 W3        30.13S
HURON          SUNNY     19   9  65 CALM      30.19S
SISSETON         N/A     16   7  67 NW8       30.16F WCI   5
ABERDEEN       SUNNY     19   8  62 S5        30.17F WCI  12
MITCHELL       MOSUNNY   20  11  68 NW6       30.19F WCI  12
PIERRE         CLOUDY    21  15  78 SE6       30.11F WCI  13
MOBRIDGE       MOSUNNY   21  11  65 S7        30.07F WCI  12
RAPID CITY     CLOUDY    22  19  89 SE3       29.95F FOG
$$

  *****  SOME WEATHER IN NEARBY STATES *****

CITY           SKY/WX    TMP DP  RH WIND       PRES   REMARKS
GLASGOW MT     CLOUDY    23  19  85 SE14      29.85F WCI  11
GREAT FALLS MT PTSUNNY   44  24  45 SW16      29.81F
CHEYENNE WY    SUNNY     48  12  23 SW14      29.97F
SCOTTSBLUFF NE SUNNY     46  20  35 VRB3      29.97F
OMAHA NE       CLOUDY    29  17  61 N6        30.23F WCI  23
DES MOINES IA  MOSUNNY   29  12  49 NW10      30.20F WCI  20
DAVENPORT IA   SUNNY     27   8  44 W18       30.15F WCI  14
CHICAGO IL     MOSUNNY   27   2  34 W21G28    30.05F WCI  13
EAU CLAIRE WI  SUNNY     14  -2  49 W13G23    30.07S WCI   0
LA CROSSE WI   SUNNY     22   3  44 NW14      30.11R WCI   9
$$

  *****  SOME NATIONAL WEATHER *****

CITY           SKY/WX    TMP DP  RH WIND       PRES   REMARKS
LA GUARDIA NY  PTSUNNY   45  23  42 SW15G25   29.85F
RALEIGH NC     MOSUNNY   58  26  29 SW14G22   30.03F
ATLANTA GA     PTSUNNY   60  35  39 VRB7      30.17F
NEW ORLEANS LA PTSUNNY   69  42  37 SE5       30.21F
OKLAHOMA CITY  PTSUNNY   58  35  42 E5        30.03F
ALBUQUERQUE NM MOSUNNY   50  10  20 SW5       30.10F
SALT LAKE CITY PTSUNNY   42  28  57 CALM      30.11F
LOS ANGELES CA PTSUNNY   66  52  60 SW3       30.10F
BOISE ID       CLOUDY    25  20  81 CALM      30.16F HAZE
SEATTLE WA     CLOUDY    50  44  80 S5        29.98S
$$

*** WEATHER ACROSS MANITOBA...SASKATCHEWAN AND ONTARIO ***
                ***ONTARIO***

CITY           SKY/WX    TMP DP  RH WIND       PRES   REMARKS
GERALDTON      MOSUNNY    0  -9  65 NW8       29.82R WCI -15
THUNDER BAY    MOSUNNY    7  -8  51 NW15G21   29.96R WCI -11
SIOUX LOOKOUT  CRYSTALS   3  -6  66 NW9       29.95R WCI -11
TORONTO        PTSUNNY   27  14  59 W22G31    29.80S WCI  12
BIG TROUT LK   SUNNY     -6 -13  71 NW14G22   29.87S WCI -26
PICKLE LAKE    FLURRIES   0 -11  60 NW10      29.87R WCI -17
DRYDEN         SUNNY      1  -6  71 W13       29.96S WCI -16
KENORA         MOSUNNY    3  -6  66 NW10      30.01S WCI -12
$$
                *** MANITOBA***

CITY           SKY/WX    TMP DP  RH WIND       PRES   REMARKS
BRANDON        MOSUNNY   16   5  62 SW8       30.03F WCI   5
DAUPHIN        NOT AVBL
ISLAND LAKE    MOSUNNY    0  -9  65 W13       29.96S WCI -18
PILOT MOUND      N/A     14   5  67 SW7         N/A  WCI   4
THE PAS        PTSUNNY   12   1  62 S9        29.93F WCI   0
THOMPSON       MOSUNNY    1 -11  55 W10       29.91F WCI -14
WINNIPEG       SUNNY      9  -2  61 CALM      30.12F
LYNN LAKE      CLOUDY     3   0  85 SW6       29.83F WCI  -8
CHURCHILL      CRYSTALS  -8 -15  71 W17G24    29.83R WCI -31
GILLAM         CRYSTALS  -8 -15  71 W13       29.88F WCI -28
$$
                ***SASKATCHEWAN***

CITY           SKY/WX    TMP DP  RH WIND       PRES   REMARKS
ESTEVAN        MOSUNNY   18   7  62 S12       29.95F WCI   5
KINDERSLEY     PTSUNNY   23  19  86 SW14      29.72F WCI  11
LLOYDMINSTER   CLOUDY    28  23  80 SW13      29.65F WCI  18
PRINCE ALBERT  FLURRIES  18  14  86 SW12      29.81F WCI   5
REGINA         PTSUNNY   18  10  73 S17       29.88F WCI   2
YORKTON        FLURRIES  16   9  73 S12       29.93S WCI   3



USA.gov is the U.S. government's official web portal to all federal, state and local government web resources and services.